sat.trackr.live / text

‹ back to catalog

STARLINK-4309

NORAD 53066 · 2022-077Z

PAYLOAD ACTIVE UNKNOWN

§ Identity

Operator
Country
US
Launch date
2022-07-11
Launch site
AFWTR
Launch vehicle
Mass (kg)
RCS (m²)

Purposes: comms

External: N2YO · Heavens-Above · Gunter

§ Orbital elements

Epoch: 2026-09-20T03:22:21.170784Z

Period
93.91 min
Inclination
97.2853°
Eccentricity
0.0001727
Mean motion
15.33442532 rev/d
Perigee alt
464.4 km
Apogee alt
466.7 km
Semi-major
6,843.7 km
B*
8.7228e-5
RAAN
77.9126°
Arg perigee
86.6734°
Mean anomaly
273.4706°
Rev number
23,023

§ Raw data

STARLINK-43091 53066U 22077Z   26263.14052281  .00002742  00000+0  87228-4 0  99952 53066  97.2853  77.9126 0001727  86.6734 273.4706 15.33442532230230

JSON: /api/v1/satellites/53066 · /tle

For live sub-satellite position, see the globe view (requires WebGL).

§ Visibility from observer

Set your observer location to see the next 7 days of passes ≥ 10°. The values pass through the URL so the page stays shareable.

No JS? Fill the form by hand. The geolocation button needs JavaScript.